Other Public Products
Issued by NWS Grand Forks, ND

Home | Current Version | Previous Version | Text Only | Print | Product List | Glossary On
Versions: 1 2 3 4 5 6 7 8 9 10 11 12 13 14 15 16 17 18 19 20 21 22 23 24 25 26 27 28 29 30 31 32 33 34 35 36 37 38 39 40 41 42 43 44 45 46 47 48 49 50
000
FPUS83 KFGF 072031
OPUFGF
PRAIRIE TO PINES WEATHER ROUNDUP
NATIONAL WEATHER SERVICE EASTERN NORTH DAKOTA/GRAND FORKS ND
200 PM CST WED DEC 07 2016

 **SATELLITE DATA USED TO AUGMENT SKY COVER AT AUTOMATED STATIONS**
 *****  WEATHER ACROSS EASTERN NORTH DAKOTA  *****

CITY           SKY/WX    TMP DP  RH WIND       PRES   REMARKS
GRAND FORKS    LGT SNOW  20  14  77 NW21G29   30.00R BLWGSNOWWCI   4
GRAND FORKS AF LGT SNOW  18  14  86 NW21G28   30.00R WCI   1
GRAND CITY NWS NOT AVBL
BUXTON           N/A     37  36  97 W24         N/A
DEVILS LAKE    SNOW      11   8  88 NW31      30.06R VSB 1/4 WCI -11
FARGO          LGT SNOW  16  10  77 W24G37    30.06R VSB 3/4 WCI  -2
WAHPETON ARPT  CLOUDY    14   9  79 W26G36    30.10R WCI  -6
$$

 *****  WEATHER ACROSS CENTRAL AND WESTERN NORTH DAKOTA  *****

CITY           SKY/WX    TMP DP  RH WIND       PRES   REMARKS
JAMESTOWN      LGT SNOW   9   5  84 NW31G39   30.12R VSB 3/4 WCI -14
BISMARCK       CLOUDY     5  -1  76 NW24G37   30.29R WCI -17
MINOT          LGT SNOW   7   2  80 W33G40    30.24R VSB 3/4 WCI -17
MINOT AFB      HVY SNOW   5   0  78 NW37G45   30.23R VSB 1/4 WCI -21
GARRISON         N/A      2  -3  80 NW31G47   30.24R WCI -24
WILLISTON      CLOUDY     1  -7  68 NW17      30.43S WCI -19
DICKINSON      MIX PCPN   1  -5  75 NW24G36   30.31R WCI -22
HETTINGER      PTSUNNY    5  -2  72 NW33G39   30.31S HAZE    WCI -20
$$

 *****  OTHER OBSERVATIONS NORTHEAST NORTH DAKOTA  *****

CITY           SKY/WX    TMP DP  RH WIND       PRES   REMARKS
WALHALLA       LGT SNOW  19  19 100 NW22      30.01R WCI   3
LANGDON        SNOW      16  12  86 NW31G39   29.99R VSB 1/4 WCI  -5
CAVALIER       LGT SNOW  19  16  86 NW23G30   29.99R VSB 1   WCI   2
GRAFTON        CLOUDY    19  18  93 NW22      30.00R WCI   3
CANDO          LGT SNOW  14  10  85 NW25G31   30.11R VSB 1   WCI  -5
FORT TOTTEN      N/A     12  10  92 NW14      29.95S WCI  -3
ROLLA          HVY SNOW  10   9  92 NW35G43   30.08R VSB 1/4 WCI -13
RUGBY            N/A      7   5  92 NW31G37   30.16R FOG     WCI -17
 ***** THE ABOVE OBSERVATIONS ARE NON NWS ARE NOT QUALITY
        CONTROLLED AND MAY MIS-REPORT RAIN FOR SNOW...
$$

 *****  OTHER OBSERVATIONS SOUTHEAST NORTH DAKOTA *****

CITY           SKY/WX    TMP DP  RH WIND       PRES   REMARKS
COOPERSTOWN    SNOW      12   9  85 NW29G37   30.07R VSB 1/2 WCI  -9
VALLEY CITY    LGT SNOW   9   9 100 NW31G40   30.10R VSB 3/4 WCI -14
OAKES          NOT AVBL
GWINNER        CLOUDY    14  10  85 W26G36    30.13R WCI  -6
SHEYENNE NWR     N/A     13   4  68 NW22      29.95S WCI  -6
BUFFALO          N/A     -3   7 100 N30         N/A  WCI -30
WYNDMERE         N/A     16  10  79 W22         N/A  WCI  -2
 ***** THE ABOVE OBSERVATIONS ARE NON NWS ARE NOT QUALITY
       CONTROLLED AND MAY MIS-REPORT RAIN FOR SNOW...
$$

  *****  WEATHER ACROSS NORTHERN MINNESOTA  *****

CITY           SKY/WX    TMP DP  RH WIND       PRES   REMARKS
FLAG ISLAND    CLOUDY    27  21  80 N23       29.80R FOG     WCI  12
WARROAD        LGT SNOW  25  21  86 NW13G18   29.84R WCI  13
ROSEAU         LGT SNOW  27  21  80 NW16      29.85R WCI  14
HALLOCK        CLOUDY    23  21  93 NW23G31   29.93R WCI   7
THF RVR FALLS  LGT SNOW  19  18  93 NW18      29.92R FOG     WCI   4
HALSTAD          N/A     16  12  84 NW23        N/A  WCI  -2
FOSSTON        LGT SNOW  16  12  86 W18G24    29.93R WCI  -1
BAUDETTE       LGT SNOW  25  21  85 N15       29.78R VSB 3/4 WCI  13
WASKISH        LGT SNOW  25  21  86 W16G23    29.80R WCI  12
CROOKSTON      LGT SNOW  19  18  93 NW24G35   29.98R WCI   2
$$
  *****  WEATHER ACROSS CENTRAL AND WEST MINNESOTA  *****

CITY           SKY/WX    TMP DP  RH WIND       PRES   REMARKS
BEMIDJI        LGT SNOW  16  13  86 W17G26    29.87R WCI   0
PARK RAPIDS    LGT SNOW  15   7  70 W21G29    29.92R VSB 1   WCI  -2
WADENA         LGT SNOW  12   7  79 W18G24    29.97S WCI  -5
DETROIT LAKES  LGT SNOW  14  12  92 W18       29.99S VSB 1   WCI  -3
MOORHEAD       MIX PCPN  14  10  85 W26G32    30.05S VSB 1   WCI  -6
FERGUS FALLS   LGT SNOW  12   9  85 NW26G32   30.11R VSB 1   WCI  -8
ELBOW LAKE     LGT SNOW  14  10  85 NW21G28   30.07S VSB 1   WCI  -4
MORRIS MN      LGT SNOW  16   9  73 W30G36    30.09R WCI  -4
STAPLES        CLOUDY    12   9  85 W17G25    29.97S WCI  -5
WHEATON        LGT SNOW  18  10  73 W23       30.14R WCI   0
$$
  *****  WEATHER ELSEWHERE ACROSS MINNESOTA  *****

CITY           SKY/WX    TMP DP  RH WIND       PRES   REMARKS
DULUTH         CLOUDY    18  11  74 W22G31    29.79R WCI   1
INTRNTL FALLS  SNOW      25  21  85 W9        29.72R VSB 1/2 WCI  15
ELY            LGT SNOW  21  18  86 W12G17    29.70R WCI   9
CLOQUET        FLURRIES  18  10  73 W15G23    29.83S WCI   3
BRAINERD       FLURRIES  16   8  71 W21       29.94S WCI  -1
HIBBING        LGT SNOW  17  13  84 W13G23    29.78R VSB 1   WCI   4
ALEXANDRIA     LGT SNOW  14  10  84 W22G29    30.03S VSB 3/4 WCI  -4
SAINT CLOUD    FLURRIES  18   8  65 W18G30    30.02R WCI   2
MINNEAPOLIS    FLURRIES  20   8  60 W23G29    30.04S WCI   3
$$

  *****  WEATHER ACROSS SOUTH DAKOTA  *****

CITY           SKY/WX    TMP DP  RH WIND       PRES   REMARKS
SIOUX FALLS    MOSUNNY   19   7  59 W24G32    30.22R WCI   2
BROOKINGS      FLURRIES  14   6  70 NW28G35   30.15S WCI  -6
WATERTOWN      LGT SNOW  12   5  73 W21G33    30.15R WCI  -7
HURON          PTSUNNY   16   4  59 NW29G38   30.27R WCI  -4
SISSETON         N/A     16   7  67 NW24G33   30.11R WCI  -2
ABERDEEN       CLOUDY    12   1  61 NW21G31   30.24R WCI  -7
MITCHELL       SUNNY     19   5  54 NW31G39   30.30S WCI   0
PIERRE         CLOUDY    13   4  67 W31G40    30.33S WCI  -9
MOBRIDGE       MOSUNNY   10   0  63 NW31G41   30.26R WCI -13
RAPID CITY     SUNNY     14  -4  44 NW23G32   30.32F WCI  -5
$$

  *****  SOME WEATHER IN NEARBY STATES *****

CITY           SKY/WX    TMP DP  RH WIND       PRES   REMARKS
GLASGOW MT     PTSUNNY    4  -7  60 W29       30.49S WCI -20
GREAT FALLS MT LGT SNOW   1  -7  68 W8        30.48S WCI -13
CHEYENNE WY    MOSUNNY    4  -4  69 N14       30.13R WCI -14
SCOTTSBLUFF NE PTSUNNY   14   0  53 NW18G24   30.31R WCI  -3
OMAHA NE       CLOUDY    25   8  48 NW16G25   30.31F WCI  12
DES MOINES IA  CLOUDY    25  10  53 NW23      30.23S WCI  10
DAVENPORT IA   SUNNY     27  17  66 W20       30.16R WCI  13
CHICAGO IL     PTSUNNY   26  18  71 SW18      30.07S WCI  13
EAU CLAIRE WI  CLOUDY    20  12  71 SW17G26   29.98R WCI   5
LA CROSSE WI   CLOUDY    23  12  62 W13G22    30.07S WCI  11
$$

  *****  SOME NATIONAL WEATHER *****

CITY           SKY/WX    TMP DP  RH WIND       PRES   REMARKS
LA GUARDIA NY  CLOUDY    46  39  76 NW9       29.98R
RALEIGH NC     MOSUNNY   60  41  49 SW5       30.01F
ATLANTA GA     MOSUNNY   61  45  55 VRB7      30.02S
NEW ORLEANS LA CLOUDY    63  57  81 N6        30.07F
OKLAHOMA CITY  CLOUDY    38  26  62 N12       30.15R
ALBUQUERQUE NM PTSUNNY   44  20  38 NW14G23   30.03F
SALT LAKE CITY MOSUNNY   27  13  55 CALM      30.27F
LOS ANGELES CA PTSUNNY   60  49  66 CALM      30.09F
BOISE ID       SUNNY     22  16  78 SE10      30.37F WCI  11
SEATTLE WA     MOSUNNY   36  24  62 N9        30.40F
$$

*** WEATHER ACROSS MANITOBA...SASKATCHEWAN AND ONTARIO ***
                ***ONTARIO***

CITY           SKY/WX    TMP DP  RH WIND       PRES   REMARKS
GERALDTON      LGT SNOW  23  21  93 W7        29.50R WCI  15
THUNDER BAY    FLURRIES  28  23  80 W10       29.60R WCI  19
SIOUX LOOKOUT  LGT SNOW  21  19  93 N7G17     29.67R VSB 1   WCI  13
TORONTO        PTSUNNY   37  25  60 W13G20    29.93S
BIG TROUT LK   LGT SNOW  23  21  93 N13G20    29.83R WCI  11
PICKLE LAKE    LGT SNOW  21  19  93 N12G21    29.64R DRFTSNOWWCI   9
DRYDEN         LGT SNOW  21  19  93 N7        29.70R WCI  13
KENORA         LGT SNOW  23  19  86 N15G24    29.77R WCI  10
$$
                *** MANITOBA***

CITY           SKY/WX    TMP DP  RH WIND       PRES   REMARKS
BRANDON        LGT SNOW  16  10  79 NW23G29   30.14R BLWGSNOWWCI  -2
DAUPHIN        LGT SNOW  18  14  86 NW16      30.21R WCI   3
ISLAND LAKE    FLURRIES  19  18  93 N15G26    30.02R WCI   5
PILOT MOUND      N/A     14  12  92 NW25G32     N/A  WCI  -5
THE PAS        PTSUNNY   12   7  79 N16       30.34R WCI  -4
THOMPSON       LGT SNOW   7   1  78 N14       30.30R DRFTSNOWWCI -10
WINNIPEG       LGT SNOW  23  19  86 N21G26    29.97  BLWGSNOWWCI   8
LYNN LAKE      CLEAR     -6  -9  84 N10G17    30.42R WCI -23
CHURCHILL      SNOW      10   9  92 NW25G37   30.31R VSB 1/8 WCI -10
GILLAM         FLURRIES   5   0  78 N17G23    30.24R WCI -14
$$
                ***SASKATCHEWAN***

CITY           SKY/WX    TMP DP  RH WIND       PRES   REMARKS
ESTEVAN        SNOW       1  -2  85 NW30G38   30.33R VSB 1/2 WCI -24
KINDERSLEY     CRYSTALS  -2  -9  71 NW14      30.52R WCI -21
LLOYDMINSTER   FLURRIES  -2  -9  71 NW12      30.55R WCI -20
PRINCE ALBERT  FLURRIES   7   0  72 NW13G21   30.47R WCI  -9
REGINA         CLOUDY     3  -4  72 NW21      30.40R WCI -18
YORKTON        CLOUDY    10   7  85 NW15G28   30.29R WCC1F1C2F2C3F3C4F4C5F5C6F6C7F7C8F8C9F9CaFaCbFbCcFcCdFdCe!


USA.gov is the U.S. government's official web portal to all federal, state and local government web resources and services.